Theta_e
309 312 329 333 337 331 334 335 335 341 338 336 334 333 334 333 333 338 337 336 338 343 332 318 317 318 315 312 314 316 317 317 317 318 319 320 320 320 320 321 323 328 330 330 330 331 332 332 331
312 323 331 334 335 336 333 332 341 340 340 336 334 335 334 333 332 336 337 335 336 342 335 322 318 318 317 312 314 317 317 317 318 319 320 323 324 326 325 326 326 328 331 332 332 332 333 333 333
323 325 332 332 336 334 333 338 340 338 339 334 334 334 333 332 333 336 338 336 335 345 339 329 320 319 318 314 314 317 318 318 319 320 321 323 324 327 333 334 334 335 335 334 335 335 334 334 335
329 327 330 338 339 336 335 340 340 339 336 335 334 333 333 332 332 333 336 336 334 341 345 338 323 320 320 316 314 317 319 319 319 320 321 325 325 330 332 334 335 336 336 337 337 336 335 334 334
328 330 332 331 332 333 332 334 338 339 336 335 334 332 333 331 331 332 335 335 334 334 342 341 336 321 321 319 314 317 319 319 320 320 322 323 324 326 332 337 339 339 339 339 338 337 335 334 334
330 330 332 335 333 332 333 332 336 336 335 334 334 333 333 331 332 332 334 336 335 334 336 340 335 329 321 322 317 315 318 320 321 322 323 324 326 328 332 338 339 337 339 338 336 336 336 334 333
330 329 331 332 333 333 332 333 333 333 332 332 333 332 332 333 333 333 333 334 336 335 334 340 336 334 325 322 322 316 317 320 321 324 324 325 325 327 330 331 331 336 336 335 336 336 335 333 332
329 330 331 333 335 333 332 331 331 331 332 334 333 333 333 336 334 333 333 333 335 337 335 337 339 335 335 325 324 323 318 320 321 324 326 326 325 325 325 327 328 328 327 330 331 330 330 332 333
328 328 331 331 332 332 332 331 331 331 332 333 332 332 332 331 332 332 332 332 333 334 336 337 341 346 342 341 336 329 324 320 322 324 327 327 325 331 335 337 336 334 332 332 329 327 325 326 329
328 329 330 331 331 333 332 332 332 332 333 333 332 332 331 331 332 333 333 332 331 332 335 337 336 342 345 343 341 340 332 329 325 329 334 334 337 338 336 335 335 335 331 330 329 327 323 328 328
331 331 329 331 332 332 332 332 332 332 333 333 333 332 332 333 333 332 330 330 330 330 330 336 336 338 342 341 340 341 341 338 337 336 338 337 340 339 337 335 335 333 332 331 333 331 328 330 328
332 332 331 332 333 333 333 332 333 333 333 333 334 333 332 333 333 333 331 329 329 328 329 328 338 337 340 341 341 344 344 343 340 340 339 341 338 336 334 335 336 334 333 333 331 331 331 330 330
328 328 330 332 333 332 333 333 334 333 333 333 333 334 334 333 334 332 330 329 329 329 328 327 340 337 339 340 341 341 343 344 342 340 339 337 337 336 337 337 335 334 334 332 331 331 331 330 329
328 328 329 330 331 331 331 332 332 333 334 333 334 334 333 333 333 331 330 331 331 329 328 327 342 337 340 339 340 341 340 341 338 336 335 333 335 335 335 336 335 335 334 333 332 331 329 328 328
327 330 330 330 330 331 331 332 332 332 332 332 333 334 333 334 332 331 330 332 329 329 328 328 340 340 342 344 339 344 342 338 335 333 333 334 335 336 335 335 335 334 334 333 332 331 329 331 328
326 328 331 330 330 331 331 333 332 331 331 332 333 333 334 333 332 330 329 330 329 330 329 335 340 344 344 346 344 342 341 336 334 334 334 333 335 336 336 335 334 335 333 331 331 331 332 330 331
325 329 329 329 329 329 331 333 332 332 332 333 333 331 332 332 332 332 332 331 330 330 331 336 337 344 346 347 347 345 339 337 334 334 333 334 336 337 335 334 335 334 332 331 331 332 330 329 329
325 326 326 328 329 329 331 331 331 331 331 332 332 331 331 332 332 332 332 332 332 334 336 337 339 343 346 346 346 343 338 336 336 334 334 335 335 335 335 336 335 334 331 331 332 330 330 329 329
323 325 325 327 327 328 330 330 331 332 332 332 332 331 332 333 332 331 331 334 336 336 340 342 340 339 346 346 344 341 338 336 336 334 335 334 335 335 334 334 334 332 330 331 331 330 331 330 329
320 323 325 326 324 326 329 331 332 332 332 332 332 332 332 333 334 335 335 338 337 339 340 340 340 341 344 343 340 338 336 336 335 335 334 334 335 335 334 333 333 333 333 331 332 330 331 330 328
320 322 324 324 323 325 328 330 332 331 332 332 332 332 332 332 330 333 339 342 339 340 340 340 340 344 341 340 337 338 337 336 336 334 333 336 335 334 333 332 332 332 332 331 331 331 330 330 329
321 319 320 322 323 328 326 332 334 332 333 333 332 332 331 331 331 335 341 344 341 340 340 340 341 341 339 339 338 338 337 335 335 335 335 336 336 335 332 331 331 331 331 333 332 331 330 329 330
320 319 320 321 323 326 326 328 330 330 332 332 331 331 331 331 334 335 343 342 340 340 341 341 342 340 339 335 338 338 337 334 332 333 335 335 335 333 333 332 329 331 329 329 329 329 329 330 330
319 319 319 321 323 327 328 328 329 329 330 329 329 329 330 331 333 340 342 340 340 340 340 342 341 341 339 338 338 338 336 335 337 336 335 335 334 334 333 331 330 332 331 329 329 329 329 329 329
318 323 324 324 325 327 326 327 329 328 329 329 329 330 331 333 334 342 342 341 340 340 341 341 340 341 339 338 337 336 336 337 336 336 334 336 334 334 332 331 331 334 332 329 329 328 329 329 329
318 323 323 324 325 325 323 327 327 328 329 329 329 331 333 334 341 341 341 341 339 340 340 339 340 340 339 337 336 335 336 336 336 334 335 336 333 334 334 333 333 334 332 329 329 329 331 329 329
319 320 322 324 323 324 325 327 328 329 330 330 331 333 334 341 341 341 340 340 339 339 339 339 340 339 337 336 334 334 335 335 336 335 335 336 337 335 334 334 334 333 330 330 329 331 331 330 328
318 319 322 324 325 328 325 328 330 333 333 331 332 333 334 341 341 340 340 340 339 339 339 339 339 338 335 335 334 334 332 333 334 334 333 337 334 333 332 334 333 331 330 330 332 330 333 331 329
319 319 321 325 324 327 329 328 335 333 330 331 334 332 335 341 340 340 339 339 338 338 338 339 338 335 334 333 334 333 334 334 333 333 334 335 335 333 332 332 331 330 330 331 331 331 332 330 328
319 319 321 325 327 325 327 328 331 330 329 331 332 331 338 340 340 339 339 339 338 338 338 337 334 334 334 333 334 332 334 333 335 333 334 334 335 333 332 331 331 330 329 330 331 331 331 330 328
Wind_Speed
6 5 5 5 3 5 13 17 18 4 2 5 7 4 12 9 12 5 16 16 25 22 24 28 25 24 22 20 18 15 13 10 7 5 4 3 3 2 3 4 4 3 3 2 1 2 3 4 5
9 7 6 3 4 10 13 24 11 14 11 5 2 3 6 4 13 13 13 14 24 21 22 27 27 25 24 22 19 16 14 11 9 6 5 4 3 3 4 5 5 5 5 4 4 4 5 5 6
10 13 6 4 9 12 13 9 4 5 19 2 5 5 2 3 11 12 16 12 23 19 20 25 28 27 25 24 21 18 16 14 11 8 6 6 4 5 6 7 7 8 7 8 8 7 7 8 8
8 6 5 6 15 19 21 5 2 6 10 4 5 7 5 13 4 10 7 9 22 18 17 23 27 28 27 25 22 20 17 16 13 10 9 7 6 7 8 9 10 11 11 11 12 11 10 10 10
18 8 10 13 17 20 18 12 11 12 9 6 5 1 10 12 13 9 7 8 12 20 19 19 24 28 27 26 24 21 19 17 14 12 10 9 7 7 8 10 12 13 12 12 13 14 14 14 13
7 9 12 14 20 22 18 11 10 10 7 12 4 7 1 14 14 8 8 10 10 16 22 21 21 28 28 27 26 23 21 19 16 15 12 10 8 9 9 11 12 13 12 12 13 14 14 16 14
15 12 16 19 21 20 10 5 13 10 12 7 10 5 4 14 11 5 3 7 10 10 21 20 19 25 30 30 28 26 23 20 18 17 15 12 10 11 12 13 15 13 13 12 11 11 11 12 14
13 13 22 20 18 19 18 17 8 9 13 9 5 3 6 4 9 4 10 10 19 20 22 23 21 22 29 33 32 30 26 23 20 19 16 14 13 15 16 17 18 16 14 12 12 12 13 13 14
17 14 16 22 21 20 19 17 18 12 1 12 7 8 10 18 9 7 14 13 13 15 25 29 25 23 23 26 29 33 30 27 23 21 20 17 15 13 15 21 19 16 16 14 15 15 16 16 17
16 15 24 22 20 22 23 21 18 10 6 9 19 15 19 14 6 10 13 14 18 20 22 32 33 30 26 25 26 28 32 29 27 24 19 15 14 15 13 13 12 19 16 16 17 18 15 14 14
22 22 23 22 24 25 23 24 20 17 15 12 16 14 14 16 15 7 16 21 20 21 22 22 38 35 34 30 27 30 27 27 26 22 20 18 17 15 14 17 15 17 16 14 15 16 14 11 14
27 28 26 28 26 26 26 26 26 22 13 17 25 19 13 14 15 16 16 20 19 25 25 30 36 39 37 31 29 27 26 26 26 27 24 21 15 15 17 14 10 10 14 16 11 12 18 13 13
30 26 28 29 28 28 26 27 26 26 23 20 24 20 20 15 14 20 23 19 19 23 26 25 29 40 38 34 27 28 26 26 24 22 23 21 17 16 15 16 15 14 14 15 14 13 11 10 14
28 28 30 29 30 28 27 28 26 26 25 23 24 21 22 21 12 22 17 16 18 17 20 18 22 36 38 38 30 24 25 22 22 19 18 20 18 14 13 12 13 15 16 16 16 15 16 14 11
31 30 30 30 29 29 27 32 29 25 27 24 28 22 21 23 16 20 13 17 15 17 17 19 13 30 35 31 37 17 21 21 18 18 15 14 16 14 15 14 11 13 14 14 14 14 16 14 15
31 32 30 29 31 32 27 36 26 23 24 23 24 21 19 14 17 9 17 24 20 16 13 8 11 27 27 24 24 23 18 20 14 17 17 17 15 15 13 12 16 13 13 14 15 16 16 16 11
29 24 34 32 29 30 29 33 27 27 27 24 19 20 18 20 9 12 20 23 17 13 13 12 14 28 27 21 17 20 17 17 20 14 12 12 14 15 13 16 15 14 13 15 16 15 17 16 16
22 30 30 28 25 27 29 31 28 25 27 23 20 15 15 20 10 12 24 22 6 3 3 10 16 21 23 20 18 16 16 16 13 14 13 12 11 12 11 12 12 12 13 14 13 16 15 17 14
28 32 32 28 26 27 26 27 28 22 20 21 15 16 20 18 12 14 22 10 7 4 6 12 18 18 23 19 19 16 17 15 16 16 13 10 10 8 12 11 12 13 14 12 13 13 13 13 11
33 31 31 28 27 23 24 27 25 22 22 21 18 18 17 17 14 12 11 14 10 10 10 12 14 17 22 18 20 18 18 20 19 16 14 12 9 10 12 12 11 10 9 11 11 12 11 10 13
31 30 27 30 25 27 23 25 23 24 22 19 19 19 14 12 21 19 4 13 13 13 13 14 16 20 20 17 20 13 14 4 5 5 9 12 10 11 9 10 9 9 10 10 10 12 13 10 12
28 28 29 28 22 19 20 18 23 19 22 20 21 19 14 20 24 10 8 11 14 15 14 16 17 20 20 17 15 11 9 9 6 5 11 9 9 8 10 9 10 9 9 9 9 11 12 12 12
35 23 27 27 24 21 23 14 28 17 19 19 19 19 14 19 12 10 16 15 16 18 17 18 18 19 16 18 14 13 10 7 3 4 7 4 6 10 9 10 8 9 10 9 7 9 11 14 11
27 26 29 26 19 18 26 19 28 18 20 19 17 18 18 16 14 10 15 19 18 18 19 20 20 18 17 13 11 10 9 1 4 3 2 4 6 8 11 12 10 8 7 6 7 11 10 10 14
31 23 16 18 17 20 17 19 21 21 20 19 16 15 16 14 10 18 16 14 17 20 21 21 20 18 17 13 9 7 5 4 0 2 3 4 4 6 7 9 9 7 6 7 7 7 7 7 10
29 26 16 26 16 20 20 24 19 24 20 16 16 16 13 11 17 16 15 15 18 21 22 22 21 19 17 15 11 9 7 7 3 2 2 3 1 3 7 8 7 7 7 7 6 5 4 4 6
30 28 29 24 21 19 16 18 30 25 18 15 12 14 7 14 15 16 15 14 20 22 22 22 21 18 16 14 12 9 7 2 0 0 1 1 1 2 5 7 7 7 7 9 5 4 1 2 4
31 20 26 18 24 23 19 21 14 14 16 11 12 12 10 17 16 15 15 15 21 22 21 21 20 18 16 14 12 10 5 4 1 2 2 1 1 5 8 8 6 7 8 8 7 2 3 4 5
25 26 23 20 18 16 14 14 7 3 5 5 17 14 10 18 16 16 15 18 22 22 21 20 18 18 16 14 11 9 8 7 4 4 3 3 3 7 9 9 8 7 8 8 5 3 4 6 5
28 25 25 18 22 18 14 15 6 6 4 7 9 16 18 19 17 17 16 15 20 20 21 18 19 18 16 14 15 8 13 7 6 5 4 3 3 6 10 10 8 7 8 7 4 4 6 7 6
Wind_Direction
208 187 248 273 234 242 267 268 268 75 231 65 48 358 0 340 13 63 150 140 137 162 166 171 174 172 174 175 177 178 179 175 168 166 165 183 184 187 200 214 216 212 214 225 256 273 277 285 286
185 202 246 250 238 230 249 242 353 342 102 57 271 250 254 15 33 112 138 137 148 168 172 175 178 180 181 181 183 183 184 183 183 189 187 207 232 240 246 247 233 236 243 246 253 262 268 266 271
198 233 276 217 236 255 266 354 61 217 270 304 321 142 256 64 77 78 109 141 147 160 178 180 181 184 187 187 187 189 189 191 194 192 201 215 237 253 252 255 256 246 247 247 253 257 259 260 256
208 209 253 254 258 252 256 200 9 254 250 136 282 325 105 98 108 71 92 153 149 159 172 191 187 188 192 194 194 194 195 199 201 204 209 219 237 252 256 254 249 254 257 259 256 256 258 257 258
243 251 243 250 253 261 277 259 138 303 307 263 201 76 72 99 107 118 123 165 175 172 176 199 203 196 198 199 200 200 202 205 207 215 217 226 241 261 262 257 253 253 255 262 269 256 253 255 254
219 230 257 250 247 249 256 272 302 296 303 274 159 241 95 143 131 127 146 181 205 186 176 196 205 207 204 207 207 206 208 209 212 217 221 230 243 263 267 260 267 262 256 260 267 266 267 264 251
241 246 241 252 270 286 293 345 286 279 303 291 38 113 359 108 109 118 170 198 202 209 173 200 196 209 212 212 213 213 212 213 217 220 225 232 243 257 268 267 264 254 250 253 258 265 267 269 255
238 256 266 271 273 276 294 320 325 313 266 88 39 222 285 146 148 176 234 230 194 196 185 193 198 209 214 217 217 217 215 215 218 223 228 236 247 259 272 271 263 258 254 250 255 257 259 255 250
233 255 256 254 261 274 282 269 272 281 94 296 322 306 298 293 245 348 284 270 268 216 191 182 195 205 214 212 221 219 219 218 218 222 228 234 252 261 262 266 256 251 246 245 259 263 266 260 251
223 236 242 253 275 284 275 286 292 257 245 284 311 261 251 253 325 283 282 298 294 288 206 192 192 192 199 205 215 227 222 219 217 219 223 234 246 239 247 255 248 237 241 256 269 267 265 257 252
229 238 245 254 255 261 273 278 285 267 254 228 223 296 307 318 313 285 277 278 277 277 288 219 194 190 191 191 207 214 215 217 219 218 216 217 230 235 253 250 244 234 245 248 261 258 247 242 243
233 237 246 255 260 272 279 286 287 285 298 282 295 289 268 274 296 301 289 283 287 288 295 302 200 189 188 188 195 199 202 209 208 209 210 205 214 235 242 245 217 247 234 243 245 248 232 248 232
240 240 245 255 257 257 267 273 283 282 280 279 279 280 291 269 267 275 266 277 295 285 285 281 201 192 190 188 194 200 203 207 206 205 206 211 215 222 234 235 226 238 243 246 248 245 248 257 239
246 243 248 252 253 259 263 270 271 274 283 283 280 266 272 279 272 282 275 286 289 299 296 296 186 195 189 190 191 206 207 208 201 201 200 206 210 224 242 247 245 236 237 244 247 243 250 254 252
254 256 262 255 260 264 269 267 258 266 267 275 275 273 276 272 266 261 284 293 297 288 283 283 196 195 189 186 196 199 205 200 200 207 212 201 205 220 234 242 260 248 240 245 249 243 244 248 247
251 258 259 253 259 257 260 264 266 271 279 273 280 276 275 265 268 287 288 285 277 271 260 245 184 181 182 181 191 204 202 205 210 207 211 210 217 223 233 248 256 252 262 256 253 246 238 243 246
247 249 251 251 248 261 255 265 265 254 255 256 265 276 276 278 267 281 276 283 280 244 242 215 191 180 178 177 186 199 197 201 212 226 217 215 215 224 234 246 253 260 262 258 254 247 238 242 243
222 235 243 259 254 253 247 256 259 256 257 257 246 264 266 269 259 266 276 282 274 188 164 194 176 165 169 169 182 194 205 206 213 215 220 223 216 240 251 246 259 257 261 266 248 245 240 237 229
236 237 246 253 250 247 253 257 267 274 264 258 270 266 260 256 247 251 271 242 135 130 136 149 158 161 161 162 176 191 204 193 215 222 220 217 228 245 258 252 255 260 269 255 251 234 232 219 218
244 247 250 260 260 259 263 260 252 256 261 261 243 247 265 283 298 263 266 121 135 141 154 153 163 169 162 168 180 195 200 202 207 211 216 206 213 240 248 251 258 261 244 252 237 233 227 224 213
236 236 246 258 266 266 271 269 272 270 267 269 268 263 256 271 274 271 198 135 140 144 155 163 165 158 162 174 193 200 184 149 150 216 225 220 225 236 238 256 253 243 233 238 236 227 216 216 219
243 234 243 250 252 258 258 269 257 263 266 261 267 265 249 248 247 238 158 138 143 144 151 151 155 158 173 186 184 169 179 200 203 210 185 171 202 218 231 240 244 240 240 232 231 222 216 211 210
245 243 251 248 251 259 255 260 268 271 265 255 254 253 253 249 257 249 130 140 141 141 147 150 152 166 177 164 172 181 226 237 207 189 146 189 201 228 231 226 233 237 247 248 225 210 199 203 218
245 240 249 257 255 246 243 244 264 256 261 265 263 257 243 255 233 142 125 133 137 144 147 150 157 174 152 179 166 183 190 268 74 99 305 276 262 236 222 225 228 234 243 216 211 195 211 227 222
238 231 234 234 236 242 242 241 253 265 263 265 277 278 259 255 213 131 138 142 142 148 148 153 165 151 165 175 165 172 167 170 205 258 299 303 274 228 208 207 207 220 212 201 196 205 209 203 200
225 232 222 221 222 239 241 251 261 253 259 251 247 248 265 216 122 132 144 140 153 150 155 161 163 159 169 166 168 163 164 199 216 236 319 325 358 213 182 191 200 204 193 194 196 216 215 201 212
233 224 235 245 237 245 259 248 234 245 243 232 211 242 158 125 130 139 148 147 151 153 162 159 162 162 169 163 153 162 167 202 92 359 313 275 170 175 165 177 188 189 184 178 179 170 180 198 184
238 227 225 225 231 246 239 242 257 185 219 218 207 220 210 137 143 148 147 153 149 156 161 160 159 161 163 151 163 165 167 187 191 160 173 149 153 153 160 154 170 169 178 172 161 166 154 136 145
228 225 220 241 223 238 248 267 73 85 133 217 194 203 197 143 150 150 151 149 151 156 159 158 161 160 159 152 161 148 156 164 159 152 136 135 160 151 147 155 159 157 174 174 168 164 158 128 112
237 223 229 218 211 227 244 238 84 150 208 233 257 194 149 146 152 151 153 153 153 162 154 161 160 160 158 166 146 154 146 122 129 124 122 128 144 149 153 145 147 159 154 163 179 195 151 136 168